Probability
0 0 0 0 0 0 0 0 0 0 0 0 0 0 0 0 0 0 0 0 0 0 0 0 0 0 0 0 0 0 0 0 0 0 0 0 0 0 0 0 0 0 0
0 0 0 0 0 0 0 0 0 0 0 0 0 0 0 0 0 0 0 0 0 0 0 0 0 0 0 0 0 0 0 0 0 0 0 0 0 0 0 0 0 0 0
0 0 0 0 0 0 0 0 0 0 0 0 0 0 0 0 0 0 0 0 0 0 0 0 0 0 0 0 0 0 0 0 0 0 0 0 0 0 0 0 0 0 0
0 0 0 0 0 0 0 0 0 0 0 0 0 0 0 0 0 0 0 0 0 0 0 0 0 0 0 0 0 0 0 0 0 0 0 0 0 0 0 0 0 0 0
0 0 0 0 0 0 0 0 0 0 0 0 0 0 0 0 0 0 0 0 0 0 0 0 0 0 0 0 0 0 0 0 0 0 0 0 0 0 0 0 0 0 0
0 0 0 0 0 0 0 0 0 0 0 0 0 0 0 0 0 0 0 0 0 0 0 0 0 0 0 0 0 0 0 0 0 0 0 0 0 0 0 0 0 0 0
0 0 0 0 0 0 0 0 0 0 0 0 0 0 0 0 0 0 0 0 0 0 0 0 0 0 0 0 0 0 0 0 0 0 0 0 0 0 0 0 0 0 0
0 0 0 0 0 0 0 0 0 0 0 0 0 0 0 0 0 0 0 0 0 0 0 0 0 0 0 0 0 0 0 0 0 0 0 0 0 0 0 0 0 0 0
0 0 0 0 0 0 0 0 0 0 0 0 0 0 0 0 0 0 0 0 0 0 0 0 0 0 0 0 0 0 0 0 0 0 0 0 0 0 0 0 0 0 0
0 0 0 0 0 0 0 0 0 0 0 0 0 0 0 0 0 0 0 0 0 0 0 0 0 0 0 0 0 0 0 0 0 0 0 0 0 0 0 0 0 0 0
0 0 0 0 0 0 0 0 0 0 0 0 0 0 0 0 0 0 0 0 0 0 0 0 0 0 0 0 0 0 0 0 0 0 0 0 0 0 0 0 0 0 0
0 0 0 0 0 0 0 0 0 0 0 0 0 0 0 0 0 0 0 0 0 0 0 0 0 0 0 0 0 0 0 0 0 0 0 0 0 0 0 0 0 0 0
0 0 0 0 0 0 0 0 0 0 0 0 0 0 0 0 0 0 0 0 0 0 0 0 0 0 0 0 0 0 0 0 0 0 0 0 0 0 0 0 0 0 0
0 0 0 0 0 0 0 0 0 0 0 0 0 0 0 0 0 0 0 0 0 0 0 0 0 0 0 0 0 0 0 0 0 0 0 0 0 0 0 0 0 0 0
0 0 0 0 0 0 0 0 0 0 0 0 0 0 0 0 0 0 0 0 0 0 0 0 0 0 0 0 0 0 0 0 0 0 0 0 0 0 0 0 0 0 0
0 0 0 0 0 0 0 0 0 0 0 0 0 0 0 0 0 0 0 0 0 0 0 0 0 0 0 0 0 0 0 0 0 0 0 0 0 0 0 0 0 0 0
0 0 0 0 0 0 0 0 0 0 0 0 0 0 0 0 0 0 0 0 0 0 0 0 0 0 0 0 0 0 0 0 0 0 0 0 0 0 0 0 0 0 0
0 0 0 0 0 0 0 0 0 0 0 0 0 0 0 0 0 0 0 0 0 0 0 0 0 0 0 0 0 0 0 0 0 0 0 0 0 0 0 0 0 0 0
0 0 0 0 0 0 0 0 0 0 0 0 0 0 0 0 0 0 0 0 0 0 0 0 0 0 0 0 0 0 0 0 0 0 0 0 0 0 0 0 0 0 0
0 0 0 0 0 0 0 0 0 0 0 0 0 0 0 0 0 0 0 0 0 0 0 0 0 0 0 0 0 0 0 0 0 0 0 0 0 0 0 0 0 0 0
0 0 0 0 0 0 0 0 0 0 0 0 0 0 0 0 0 0 0 0 0 0 0 0 0 0 0 0 0 0 0 0 0 0 0 0 0 0 0 0 0 0 0
0 0 0 0 0 0 0 0 0 0 0 0 0 0 0 0 0 0 0 0 0 0 0 0 0 0 0 0 0 0 0 0 0 0 0 0 0 0 0 0 0 0 0
0 0 0 0 0 0 0 0 0 0 0 0 0 0 0 0 0 0 0 0 0 0 0 0 0 0 0 0 0 0 0 0 0 0 0 0 0 0 0 0 0 0 0
0 0 0 0 0 0 0 0 0 0 0 0 0 0 0 0 0 0 0 0 0 0 0 0 0 0 0 0 0 0 0 0 0 0 0 0 0 0 0 0 0 0 0
0 0 0 0 0 0 0 0 0 0 0 0 0 0 0 0 0 0 0 0 0 0 0 0 0 0 0 0 0 0 0 0 0 0 0 0 0 0 0 0 0 0 0
0 0 0 0 0 0 0 0 0 0 0 0 0 0 0 0 0 0 0 0 0 0 0 0 0 0 0 0 0 0 0 0 0 0 0 0 0 0 0 0 0 0 0
Wind_Speed
5 5 4 4 5 4 4 4 4 4 3 3 2 2 2 3 3 2 2 9 11 12 13 13 14 15 15 16 16 17 18 18 19 19 19 20 20 21 22 22 23 24 24
6 5 5 5 5 4 4 5 5 3 3 3 3 3 3 4 3 3 3 5 11 13 13 14 14 15 15 16 17 17 18 19 19 19 20 20 21 21 22 22 23 24 25
7 6 5 5 5 5 5 4 4 3 3 3 4 5 4 4 4 4 4 3 4 10 14 14 14 15 16 17 17 18 18 19 20 20 20 21 21 22 23 23 23 24 25
9 7 6 6 6 5 5 4 4 4 4 4 4 4 4 4 5 5 5 4 4 4 8 14 15 16 17 17 18 19 19 20 20 21 21 22 22 23 24 24 24 25 25
11 8 7 6 7 5 5 6 5 5 5 5 5 4 4 4 5 6 6 6 6 5 5 10 16 17 17 18 19 19 20 20 21 21 22 23 23 24 25 25 25 26 26
12 10 7 8 8 6 6 6 6 6 5 4 4 4 4 5 5 6 7 6 6 7 6 7 6 10 18 19 19 20 21 21 21 22 23 23 24 25 25 26 26 27 27
13 12 9 9 9 9 9 9 7 7 6 4 2 3 5 8 9 8 6 6 6 7 7 7 6 5 7 17 20 21 21 22 22 23 23 24 25 25 26 27 27 28 28
14 14 13 10 11 9 11 11 9 6 6 7 5 3 4 4 8 10 7 7 7 6 7 9 7 7 6 5 12 21 22 23 23 23 24 24 25 26 27 28 28 28 29
14 14 15 12 12 12 12 13 11 12 9 8 7 6 6 7 3 3 7 7 6 6 6 6 8 8 9 7 7 16 23 23 24 24 25 25 26 27 28 28 29 29 30
14 15 14 15 13 12 12 13 14 10 9 8 7 7 5 5 4 3 3 5 7 7 7 8 8 8 8 7 11 18 23 24 25 25 26 26 27 28 28 29 29 30 30
14 15 15 14 14 12 12 12 13 12 11 10 8 6 6 5 5 5 5 4 5 6 6 7 7 7 8 7 7 14 23 24 25 25 26 27 27 28 29 30 30 31 31
11 15 15 14 14 12 13 13 12 14 13 12 10 8 7 6 8 8 9 6 5 5 6 6 6 6 6 7 12 21 24 24 25 25 26 27 28 29 29 30 31 31 32
10 13 15 15 14 14 12 11 13 13 14 13 13 11 10 9 5 7 7 6 6 5 5 5 6 6 8 6 9 21 22 24 24 25 26 27 28 29 30 31 31 32 33
10 10 15 16 16 15 15 13 12 13 12 14 16 14 10 10 9 8 8 6 5 5 6 7 4 7 7 6 10 20 13 23 25 26 27 28 28 29 30 31 32 33 33
8 10 13 15 16 16 16 15 13 14 13 13 14 14 11 9 8 7 7 7 7 6 7 7 6 6 5 5 12 9 7 19 26 27 28 28 29 30 30 31 32 33 33
10 10 11 13 14 15 15 15 13 12 14 14 11 13 13 9 8 8 8 7 8 8 7 6 6 5 5 8 14 10 8 23 27 28 28 29 29 30 31 31 32 33 34
11 12 12 13 14 15 16 16 16 15 17 15 14 14 15 12 9 9 8 8 9 9 11 8 6 6 7 8 10 8 9 10 12 26 28 29 30 30 31 31 32 33 34
11 12 12 13 14 15 15 17 18 17 17 18 16 15 16 13 14 11 10 11 11 10 10 11 8 7 9 8 9 10 12 12 9 21 27 29 29 30 30 31 31 32 33
11 11 11 13 14 14 14 16 17 17 17 17 16 17 16 15 16 13 12 12 10 10 9 9 10 7 8 8 9 11 12 10 12 16 23 25 27 28 29 31 31 32 33
10 10 11 12 12 12 12 13 15 15 16 16 16 16 16 17 16 15 13 13 11 10 9 9 10 9 9 8 8 9 9 7 9 11 15 18 23 28 29 30 31 31 32
10 9 10 11 10 10 11 11 13 14 14 14 15 15 16 20 23 19 14 12 12 11 10 10 10 9 10 8 8 7 9 8 8 8 8 10 11 10 12 21 26 29 31
9 9 10 11 11 10 19 25 18 13 14 15 15 14 16 22 27 32 31 27 21 15 13 11 10 11 11 9 7 7 8 9 10 5 7 10 8 10 9 9 21 29 31
9 10 10 10 11 14 23 26 28 15 14 14 14 13 13 16 23 17 23 30 27 29 25 15 13 13 11 9 8 9 9 10 12 6 7 12 8 11 9 13 26 29 30
9 9 10 10 10 13 23 25 26 18 13 14 14 14 15 14 15 17 15 15 14 15 17 14 11 11 10 8 9 10 11 11 10 7 7 12 10 10 11 9 21 27 28
9 8 8 9 10 12 20 23 24 10 10 13 14 15 16 15 23 28 17 15 15 13 19 24 22 20 23 23 17 9 8 9 11 7 4 8 10 11 10 10 14 23 24
9 8 9 8 10 9 17 22 23 8 10 10 11 14 23 22 25 28 17 14 15 13 10 10 14 17 14 15 20 11 6 8 10 8 4 5 7 8 9 7 6 7 11
Wind_Direction
184 186 192 189 191 191 184 208 225 220 211 230 238 247 265 278 279 282 292 301 306 310 313 314 317 319 320 321 322 323 323 323 323 324 325 325 325 325 324 324 324 323 322
183 188 191 194 194 194 192 198 214 213 214 217 235 249 253 258 258 262 257 284 293 297 300 302 305 307 310 312 314 315 316 316 317 318 318 319 319 318 318 318 318 317 317
187 187 189 193 195 193 193 197 219 210 219 223 228 237 239 240 248 257 259 245 263 280 286 289 292 296 299 303 305 307 308 310 311 312 313 313 314 314 314 313 313 312 311
191 188 189 196 191 187 186 189 202 199 214 216 224 233 230 227 236 243 244 239 231 244 268 277 284 287 291 295 297 299 301 303 305 306 307 308 310 310 310 309 309 308 307
195 192 193 195 189 188 187 197 197 196 207 213 218 225 226 230 235 244 238 233 228 223 222 260 272 280 286 288 290 293 295 297 299 302 303 305 306 306 306 306 305 305 304
196 195 197 197 191 190 193 195 198 197 202 205 225 236 232 231 232 234 234 233 225 223 223 231 248 270 276 282 285 288 290 292 295 297 299 301 301 302 302 302 302 301 300
196 198 201 200 198 198 198 194 189 198 203 186 203 263 256 237 234 231 221 219 222 224 220 220 219 225 256 270 278 284 287 289 291 293 295 297 297 298 298 298 299 299 298
199 202 204 203 202 200 200 198 193 191 198 185 174 192 264 266 233 225 210 211 218 218 222 227 222 223 228 235 259 273 280 284 286 288 291 293 294 295 296 297 298 298 297
204 205 206 205 205 203 206 203 196 193 199 197 185 173 192 226 258 237 215 214 214 214 219 222 226 227 229 228 240 263 272 277 281 284 287 290 292 294 295 296 296 297 297
211 209 207 207 208 208 209 207 204 199 190 196 201 207 198 174 180 256 267 227 219 222 223 232 237 230 228 228 241 255 266 272 277 281 285 288 292 294 295 296 296 296 296
216 214 211 210 212 212 211 208 206 203 203 201 195 184 208 217 193 190 239 241 235 228 224 226 229 230 229 227 231 249 263 270 274 279 283 287 290 293 295 295 295 295 294
217 216 214 214 215 215 213 211 209 208 207 208 205 195 183 185 197 200 218 223 230 236 231 228 228 230 231 232 243 259 265 270 274 278 281 285 288 291 292 293 293 292 291
222 217 213 216 217 216 213 209 211 213 209 208 210 210 206 205 183 187 203 216 226 234 238 238 230 231 241 233 242 260 265 271 275 279 281 284 286 288 289 290 290 290 290
228 215 212 216 216 214 215 212 215 216 213 214 215 213 214 211 204 198 197 197 225 235 231 240 236 230 236 233 245 262 265 271 276 279 281 283 284 285 286 288 289 289 288
232 217 213 214 215 213 213 212 218 217 216 216 217 215 217 214 209 207 203 196 200 226 235 229 233 231 232 237 257 260 248 266 275 278 280 282 284 284 286 286 287 287 286
235 226 219 216 214 213 213 214 218 215 216 217 214 215 217 214 212 209 210 210 210 220 236 223 227 236 252 261 266 265 255 272 276 279 281 283 284 284 285 285 285 285 284
235 232 227 221 217 215 213 215 218 213 218 219 216 215 217 210 210 211 211 213 218 219 240 244 241 245 248 255 266 264 263 262 265 273 278 281 282 283 284 284 285 284 284
237 235 231 228 224 219 215 215 218 216 217 218 216 215 216 212 213 212 213 217 221 221 229 244 247 245 248 251 257 260 266 265 258 271 277 280 282 283 284 285 286 285 284
242 237 232 232 230 225 219 217 217 217 217 217 215 215 214 211 215 214 215 219 222 226 226 237 249 248 252 252 258 262 261 261 264 271 277 280 282 284 285 286 286 285 284
246 241 237 236 233 228 222 219 218 218 218 217 215 214 213 213 215 215 218 220 221 224 227 235 245 250 253 249 250 257 263 253 261 269 274 277 279 283 285 286 286 286 285
252 246 242 240 234 229 225 218 217 218 217 218 217 215 215 216 219 219 219 218 217 222 226 232 241 247 249 247 247 249 262 266 259 257 266 269 274 272 276 279 283 284 284
260 253 246 243 238 235 240 237 228 220 218 219 219 216 218 225 229 230 229 226 220 220 224 228 236 241 245 241 247 252 262 272 275 239 255 270 268 271 270 266 276 281 283
261 257 252 245 244 241 245 246 242 227 218 220 218 216 219 223 227 229 236 237 235 232 229 226 235 240 243 241 245 255 256 260 268 267 274 279 271 273 273 278 284 285 286
264 261 256 249 246 245 249 250 247 238 222 219 217 216 219 222 222 222 224 230 236 239 239 235 235 242 244 244 239 250 260 267 268 261 256 278 281 278 281 278 284 285 287
274 267 261 253 249 249 251 252 249 234 225 221 218 217 218 220 226 228 224 224 231 236 244 245 246 249 253 257 257 257 257 270 279 273 242 265 280 285 280 276 278 285 290
276 274 269 257 252 248 251 253 250 233 229 225 221 220 224 223 226 230 225 220 228 229 226 240 249 256 257 260 265 258 243 260 274 280 240 252 278 294 291 267 265 283 290